Regional Weather Roundup
Issued by NWS Newport/Morehead, NC

Home | Current Version | Previous Version | Text Only | Print | Product List | Glossary On
Versions: 1 2 3 4 5 6 7 8 9 10 11 12 13 14 15 16 17 18 19 20 21 22 23 24 25 26 27 28 29 30 31 32 33 34 35 36 37 38 39 40 41 42 43 44 45 46 47 48 49 50
799
ASUS42 KMHX 100925
RWRMHX
WEATHER ROUNDUP FOR EASTERN NORTH CAROLINA
NATIONAL WEATHER SERVICE NEWPORT/MOREHEAD CITY NC
400 AM EST WED FEB 10 2016

NOTE: "FAIR" INDICATES FEW OR NO CLOUDS BELOW 12,000 FEET
WITH NO SIGNIFICANT WEATHER AND/OR OBSTRUCTIONS TO VISIBILITY

NCZ015>017-031-032-045>047-102-103-101000-
NORTH COAST

CITY           SKY/WX    TMP DP  RH WIND       PRES   REMARKS
EDENTON        CLEAR     32  16  52 W13G21    29.81S
ELIZABETH CITY CLEAR     30  17  58 W12       29.78S
KITTY HAWK     MOSUNNY   34  20  56 W13G23    29.76R
MANTEO         CLEAR     33  21  60 W9G17     29.78S

$$

NCZ045>047-081-094-103-104-101000-
CENTRAL COAST

CITY           SKY/WX    TMP DP  RH WIND       PRES   REMARKS
FRISCO         CLOUDY    39  21  48 W16G31    29.77F
SWANQUARTER      N/A     34 N/A N/A W17G25    29.79S

$$

NCZ095-097-098-100-101-101000-
SOUTHERN COAST

CITY           SKY/WX    TMP DP  RH WIND       PRES   REMARKS
BEAUFORT       CLOUDY    35  16  45 W18       29.84R
CEDAR ISLAND     N/A     34 N/A N/A W16G28    29.85S
JACKSONVILLE   CLOUDY    33  13  43 NW13      29.86S
PINEY ISLAND   CLOUDY   N/A N/A N/A W21G26    29.81S
WILMINGTON     CLOUDY    36  16  44 NW9       29.88R


$$

NCZ011>013-027>030-043-044-078>080-089-090>093-098-101000-
COASTAL PLAIN

CITY           SKY/WX    TMP DP  RH WIND       PRES   REMARKS
AHOSKIE        CLEAR     27  14  57 CALM      29.80F
CLINTON        CLEAR     29  19  67 SW3       29.88S
ELIZABETHTOWN  CLEAR     31  15  51 W5        29.90R
GOLDSBORO      CLEAR     27  18  69 W8        29.84S
GREENVILLE     CLEAR     30  18  59 W5        29.86S
HAVELOCK       CLOUDY    33  15  47 W17       29.85R
KENANSVILLE    CLEAR     29  15  55 CALM      29.88R
KINSTON        CLEAR     29  16  58 W7        29.86S
NEW BERN       PTCLDY    31  15  52 W9G18     29.85S
RICHLANDS      CLEAR     30  10  43 W5        29.87S
ROCKY MOUNT    PTCLDY    28  15  58 W7        29.83S
WASHINGTON     CLEAR     29  15  56 W7        29.84R
WHITEVILLE     CLOUDY    34  17  49 CALM      29.89R

$$

AMZ130-135-150-152-154-156-158-170-250-252-270-ANZ085-086-088-633-658-670-101000-
MARINE OBSERVATIONS

STATION/POSITION TIME  TEMP    WIND        PRES    WAVE   SWELL
                       AIR SEA DIR/SP/G            HT/PER HT/PER
                 (UTC) (F)     (DEG/KT/KT) (MB)    (FT/S) (FT/S)
CHESAPEAKE LIGHT 0900   33     270/ 21/ 23 1007.5
64 E VA BEACH    0850   40 50  270/ 23/ 29 1005.8    9/14   7/14
DUCK             0900   34     290/ 18/ 22 1007.4
2 E DUCK         0911      44                N/A     5/13   5/13
OREGON INLET     0900   35 46  270/ 14/ 23 1008.2
13E OREGON INLT  0900      47                N/A     8/14   7/14
HATTERAS CG      0900   39 51  270/ 27/ 32 1007.6
DIAMOND BUOY     0850   43 73  290/ 25/ 33 1007.5    8/15   5/15
CAPE LOOKOUT     NOT AVBL
BEAUFORT LAB     0900   35 46  300/ 10/ 16 1009.4
30 SE NEW RVR IN 0908   41 60              1010.3
30 SE NEW RVR IN 0825      60                N/A     8/ 7   3/13
27 SE WRIGHTSVLE 0908   40 60  360/ 17/ 27 1010.0
5 SE WRIGHTSVLE  0808   39 51  300/ 17/ 23 1011.7
225 S CAPE HAT   0850   54 68  290/ 29/ 41   N/A    16/11  13/11
41 SE CHARLESTON 0850   42 63  270/ 27/ 33 1013.7    9/ 7   2/11

$$




USA.gov is the U.S. government's official web portal to all federal, state and local government web resources and services.